Regional Weather Roundup
Issued by NWS Cleveland, OH

Home | Current Version | Previous Version | Graphics & Text | Print | Product List | Glossary On
Versions: 1 2 3 4 5 6 7 8 9 10 11 12 13 14 15 16 17 18 19 20 21 22 23 24 25 26 27 28 29 30 31 32 33 34 35 36 37 38 39 40 41 42 43 44 45 46 47 48 49 50
000
ASUS41 KCLE 291400
RWRCLE
OHIO REGIONAL WEATHER ROUNDUP
NATIONAL WEATHER SERVICE WILMINGTON, OH
1000 AM EDT TUE JUL 29 2014

NOTE: "FAIR" INDICATES FEW OR NO CLOUDS BELOW 12,000 FEET WITH NO
SIGNIFICANT WEATHER AND/OR OBSTRUCTIONS TO VISIBILITY.

OHZ001>008-015>018-024>027-034-035-043-044-291500-
   NORTHWEST OHIO

CITY           SKY/WX    TMP DP  RH WIND       PRES   REMARKS
DEFIANCE       MOSUNNY   62  51  67 VRB6      30.06R
FINDLAY        SUNNY     62  49  62 W6        30.04S
TOLEDO EXPRESS SUNNY     62  50  64 W6        30.04R
TOLEDO METCALF SUNNY     64  48  56 NW8       30.04S
LIMA           SUNNY     61  50  67 W3        30.06R
$$

OHZ009>014-019>023-028>033-038-089-291500-
   NORTHEAST OHIO

CITY           SKY/WX    TMP DP  RH WIND       PRES   REMARKS
CLE-HOPKINS    PTSUNNY   64  47  53 W10       30.03R
CLE-LAKEFRONT  PTSUNNY   65  48  54 NW10      30.00R
CUY CO. ARPT   PTSUNNY   63  52  67 NW9       30.01R
LORAIN-ELYRIA  CLOUDY    65  51  60 W6        30.02S
ASHTABULA      PTSUNNY   64  50  60 VRB7      29.99S
AKRON-CANTON   CLOUDY    58  50  75 W5        30.02R
WOOSTER        NOT AVBL
MANSFIELD      PTSUNNY   61  50  67 NW6       30.04R
YOUNGSTOWN     CLOUDY    61  52  72 CALM      30.00R
$$

OHZ042-051>053-060>062-070>072-077>081-291500-
  SOUTHWEST OHIO

CITY           SKY/WX    TMP DP  RH WIND       PRES   REMARKS
CINC-COVINGTON MOSUNNY   60  53  77 N6        30.07R
CINC-LUNKEN    PTSUNNY   61  53  75 NE3       30.08R
HAMILTON       MOSUNNY   62  53  72 NW7       30.08R
DAYTON         NOT AVBL
WRIGHT-PAT AFB SUNNY     61  51  70 N8        30.06R
DAYTON GENERAL MOSUNNY   61  49  64 N10       30.06R
WILMINGTON     CLOUDY    59  53  80 N7        30.05R
$$

OHZ036-037-039>041-045>050-054>059-063>069-073>076-082>088-291500-
  CENTRAL AND SOUTHEAST OHIO

CITY           SKY/WX    TMP DP  RH WIND       PRES   REMARKS
COLUMBUS       CLOUDY    64  53  67 NE6       30.04R
OSU AIRPORT    PTSUNNY   62  50  64 NE5       30.04S
BOLTON FIELD   PTSUNNY   61  55  82 NW6       30.05R
RICKENBACK AFB NOT AVBL
NEWARK         CLOUDY    62  51  67 VRB3      30.04R
MARION         SUNNY     61  49  64 N8        30.05R
LANCASTER      MOSUNNY   64  51  62 NE6       30.04R
ZANESVILLE     MOSUNNY   62  48  60 N6        30.03R
NEW PHILLY     SUNNY     62  53  72 NW6       30.03R
$$


USA.gov is the U.S. government's official web portal to all federal, state and local government web resources and services.